Home   Weather   Hückelhoven   Past weeks

Flag for Germany Past Weather in Hückelhoven, North Rhine-Westphalia, Germany — Yesterday and Last 2 Weeks

Now
68 °F

Clear.


Feels Like: 68 °F
Forecast: 60 / 73 °F
Wind: 7 mph from Southwest

Location: Geilenkirchen Airport

Current Time: Sep 28, 2016 at 8:57:45 PM

Latest Report: Sep 28, 2016 at 7:50 PM


Visibility: 10 mi

Pressure: 30.27 "Hg

Humidity: 60%

Dew Point: 54 °F

Location of HückelhovenLocation

Past Weather in Hückelhoven — Graph

°F

Hückelhoven Temperature Yesterday

Maximum temperature yesterday: 73 °F (at 3:50 PM)
Minimum temperature yesterday: 46 °F (at 5:50 AM)
Average temperature yesterday: 59 °F

High & Low Weather Summary for the Past Weeks

 TemperatureHumidityPressure
High91 °F (Sep 14, 2:50 PM)100% (Sep 27, 3:50 AM)30.33 "Hg (Sep 27, 3:50 AM)
Low43 °F (Sep 22, 5:50 AM)30% (Sep 14, 2:50 PM)29.80 "Hg (Sep 15, 3:50 PM)
Average63 °F70%30.11 "Hg
* Reported Sep 13 6:50 PM — Sep 28 6:50 PM, Hückelhoven, Weather by CustomWeather, © 2016

Note: Actual official high and low records may vary slightly from our data, if they occured in-between our weather recording intervals... More about our weather records

Advertising

Hückelhoven Weather History for the Previous 24 Hours

Scroll right to see more
 ConditionsComfort  
Time TempWeatherWind HumidityBarometerVisibility
6:50 PM
Wed, Sep 28
72 °FSunny.10 mph53%30.27 "Hg10 mi
5:50 PM72 °FSunny.7 mph53%30.27 "Hg10 mi
4:50 PM72 °FSunny.14 mph50%30.30 "Hg10 mi
3:50 PM70 °FPartly sunny.12 mph57%30.30 "HgN/A
11:50 AM66 °FPartly sunny.17 mph73%30.30 "HgN/A
10:50 AM63 °FBroken clouds.13 mph77%30.33 "HgN/A
9:50 AM61 °FBroken clouds.13 mph72%30.30 "HgN/A
8:50 AM61 °FPartly sunny.12 mph63%30.30 "HgN/A
7:50 AM59 °FPassing clouds.10 mph63%30.27 "HgN/A
6:50 AM61 °FPassing clouds.9 mph59%30.27 "HgN/A
5:50 AM61 °FClear.12 mph55%30.27 "Hg10 mi
4:50 AM63 °FClear.10 mph52%30.30 "Hg10 mi
3:50 AM61 °FClear.9 mph55%30.30 "Hg10 mi
2:50 AM61 °FPassing clouds.8 mph52%30.30 "HgN/A
1:50 AM61 °FPassing clouds.7 mph55%30.30 "HgN/A
12:50 AM63 °FClear.5 mph52%30.30 "Hg10 mi
11:50 PM
Tue, Sep 27
61 °FClear.5 mph55%30.33 "Hg10 mi
10:50 PM61 °FClear.7 mph59%30.33 "Hg10 mi
9:50 PM57 °FClear.6 mph72%30.33 "Hg10 mi
8:50 PM57 °FClear.2 mph77%30.30 "Hg10 mi
Weather by CustomWeather, © 2016

See weather overviewHow to use our weather pages